[[{"header":{"parameterUnit":"m.s-1","parameterCategory":1,"la1":30.2991,"la2":30.254,"lo1":-89.0895,"lo2":-89.0444,"dx":0.0017,"dy":0.0017,"nx":28,"ny":28,"refTime":"2022-11-03T15:00:00:Z","depth":0,"parameterNumber":2,"parameterNumberName":"U-component_of_WINDS"},"data":[0,0,0,0,0,0,0,0,0,0,0,0,0,0,0,0,0,0,0,0,0,0,0,0,0,0,0,0,0,0,0,0,0,0,0,0,0,0,0,0,0,0,0,0,0,0,0,0,0,0,0,0,0,0,0,0,0,0,-4.3364,-4.3364,0,-4.3428,-4.3429,-4.343,-4.3384,-4.3382,-4.338,-4.3378,-4.3443,-4.3447,-4.345,0,0,0,0,0,0,0,0,0,0,0,0,0,-4.3201,-4.3204,-4.3364,-4.3364,-4.3365,-4.3428,-4.3429,-4.343,-4.3385,-4.3382,-4.338,-4.3378,-4.3442,-4.3446,-4.3451,0,0,0,0,0,0,0,0,0,0,0,0,0,-4.3269,-4.3205,-4.3364,-4.335,-4.335,-4.3428,-4.3429,-4.343,-4.3385,-4.3382,-4.3379,-4.3376,-4.3441,-4.3446,-4.3451,-4.3546,0,0,-4.3468,-4.347,0,0,0,0,0,0,0,0,-4.3266,-4.3275,-4.3352,-4.3351,-4.3351,-4.3395,-4.3396,-4.3469,-4.3386,-4.3372,-4.3378,-4.3375,-4.343,-4.3436,-4.3455,-4.3549,-4.3551,-4.3468,-4.3472,-4.3474,-4.3476,0,0,0,0,0,0,0,-4.3261,-4.3272,-4.3389,-4.3353,-4.3352,-4.3341,-4.3348,-4.3409,-4.3417,-4.3373,-4.337,-4.3378,-4.3429,-4.3449,-4.3456,-4.3552,-4.3468,-4.3473,-4.3476,-4.3479,-4.3728,-4.3731,0,0,0,0,0,0,-4.3257,-4.3269,-4.3387,-4.3391,-4.33,-4.3347,-4.3354,-4.3384,-4.3416,-4.3418,-4.3381,-4.3376,-4.3442,-4.3449,-4.3458,-4.357,-4.3474,-4.3479,-4.3482,-4.3725,-4.3729,-4.3732,0,0,0,0,0,0,-4.3254,-4.3268,-4.3385,-4.3329,-4.3343,-4.3353,-4.3387,-4.3387,-4.3407,-4.3422,-4.3423,-4.34,-4.344,-4.345,-4.3524,-4.3572,-4.3481,-4.3486,-4.3721,-4.3726,-4.3731,-4.3795,0,0,0,0,0,0,-4.325,-4.3268,-4.3303,-4.333,-4.3346,-4.345,-4.339,-4.339,-4.3417,-4.3411,-4.3441,-4.3443,-4.3438,-4.3517,-4.353,-4.3577,-4.3491,-4.3716,-4.3723,-4.3729,-4.3789,-4.3802,-4.3813,0,0,0,0,0,-4.3244,-4.3318,-4.3305,-4.332,-4.3391,-4.3453,-4.3462,-4.3455,-4.3421,-4.3457,-4.3467,-4.3442,-4.3565,-4.3525,-4.3539,-4.3589,-4.3713,-4.3721,-4.3729,-4.3784,-4.38,-4.3813,0,0,0,0,0,0,-4.3295,-4.3321,-4.3307,-4.3392,-4.3421,-4.3445,-4.349,-4.3472,-4.3511,-4.3503,-4.3494,-4.3501,-4.3579,-4.3592,-4.3546,-4.3683,-4.3634,-4.3645,-4.3671,-4.3686,-4.3698,-4.3692,-4.3495,0,0,0,0,0,-4.3317,-4.3365,-4.3385,-4.3459,-4.3474,-4.348,-4.3506,-4.3499,-4.3528,-4.354,-4.3555,-4.3583,-4.3629,-4.3658,-4.3701,-4.3792,-4.3798,-4.3834,-4.3846,-4.3856,-4.3864,-4.3914,-4.393,-4.3757,-4.3757,-4.3757,0,0,-4.3361,-4.3381,-4.3412,-4.3469,-4.349,-4.354,-4.349,-4.3545,-4.3581,-4.3548,-4.3618,-4.3631,-4.3663,-4.3746,-4.3783,-4.3759,-4.3914,-4.3866,-4.3873,-4.3876,-4.3923,-4.394,-4.3954,-4.3763,-4.3762,-4.3761,0,0,-4.3466,-4.3487,-4.355,-4.3573,-4.3607,-4.3611,-4.3626,-4.3654,-4.3661,-4.3732,-4.3708,-4.3753,-4.3831,-4.3854,-4.3876,-4.3995,-4.3973,-4.4009,-4.4071,-4.4119,-4.4133,-4.4145,-4.4186,-4.4201,-4.4018,-4.4019,-4.4019,0,-4.3516,-4.3591,-4.3585,-4.3642,-4.3668,-4.3642,-4.3706,-4.3729,-4.3774,-4.3792,-4.3765,-4.3864,-4.3883,-4.3972,-4.4001,-4.402,-4.4037,-4.4004,-4.4132,-4.4144,-4.4155,-4.4194,-4.4209,-4.4023,-4.4022,-4.4022,-4.4021,0,-4.365,-4.3703,-4.375,-4.3795,-4.3827,-4.3888,-4.3891,-4.3925,-4.3916,-4.3923,-4.3997,-4.402,-4.4067,-4.4088,-4.408,-4.4176,-4.416,-4.4133,-4.4083,-4.4175,-4.4212,-4.4227,-4.4028,-4.4027,-4.4026,-4.4025,0,0,-4.3786,-4.383,-4.3847,-4.3868,-4.3904,-4.3944,-4.4005,-4.4051,-4.4079,-4.4113,-4.4162,-4.4231,-4.4207,-4.4232,-4.4227,-4.427,-4.4361,-4.4237,-4.4238,-4.4258,-4.4468,-4.4486,-4.4504,-4.4349,-4.4351,-4.4354,-4.4465,0,-4.3892,-4.3996,-4.3994,-4.4091,-4.4139,-4.4117,-4.417,-4.4198,-4.4207,-4.4249,-4.426,-4.4308,-4.4273,-4.4288,-4.433,-4.4341,-4.4403,-4.4334,-4.4394,-4.4396,-4.4384,-4.4523,-4.4542,-4.4646,-4.4479,-4.4482,-4.4484,0,-4.4029,-4.4068,-4.4169,-4.42,-4.422,-4.4267,-4.4311,-4.4352,-4.4384,-4.4388,-4.4418,-4.4407,-4.4468,-4.442,-4.4504,-4.4457,-4.4482,-4.4492,-4.4496,-4.4499,-4.4443,-4.4528,-4.4679,-4.4694,-4.4506,-4.4504,-4.4503,0,-4.4116,-4.4194,-4.4265,-4.4283,-4.4321,-4.4355,-4.4372,-4.4402,-4.443,-4.4469,-4.4488,-4.4533,-4.4557,-4.4593,-4.4595,-4.4559,-4.468,-4.4631,-4.4684,-4.4684,-4.4707,-4.4705,-4.4862,-4.4728,-4.4728,-4.4727,-4.4727,0,-4.4233,-4.4295,-4.4304,-4.4348,-4.4418,-4.4416,-4.4486,-4.45,-4.4527,-4.4573,-4.4558,-4.4601,-4.4602,-4.4646,-4.4649,-4.4718,-4.4729,-4.4734,-4.4733,-4.4734,-4.4733,-4.4748,-4.474,-4.4732,-4.4731,-4.473,-4.4729,0,-4.4339,-4.4348,-4.4424,-4.4455,-4.4464,-4.4515,-4.4541,-4.4582,-4.4592,-4.465,-4.4664,-4.4678,-4.473,-4.4737,-4.4797,-4.4799,-4.4882,-4.4875,-4.4871,-4.4869,-4.4921,-4.4915,-4.509,-4.5113,-4.4966,-4.4968,-4.4969,0,-4.4412,-4.446,-4.4497,-4.4527,-4.4546,-4.4595,-4.4625,-4.4626,-4.4658,-4.47,-4.4737,-4.4788,-4.4828,-4.4913,-4.4928,-4.4975,-4.4967,-4.5026,-4.4974,-4.4974,-4.4966,-4.4962,-4.4967,-4.5035,-4.5036,-4.5038,-4.5039,0,-4.454,-4.4542,-4.4586,-4.4632,-4.4669,-4.4705,-4.4739,-4.4765,-4.4771,-4.4808,-4.4861,-4.4893,-4.4956,-4.5006,-4.5053,-4.5071,-4.5056,-4.5056,-4.507,-4.507,-4.5065,-4.5067,-4.4896,-4.5051,-4.505,-4.5049,-4.5048,-4.5048,-4.463,-4.4672,-4.4705,-4.4755,-4.4781,-4.4814,-4.4855,-4.487,-4.4915,-4.4966,-4.4965,-4.5024,-4.5057,-4.5118,-4.514,-4.5187,-4.5167,-4.5188,-4.5193,-4.5198,-4.5202,-4.506,-4.5195,-4.5195,-4.5195,-4.5195,-4.5194,0,-4.4755,-4.4776,-4.4822,-4.4871,-4.4911,-4.4896,-4.4933,-4.4967,-4.5019,-4.5052,-4.5093,-4.5155,-4.5205,-4.5226,-4.5275,-4.5308,-4.5302,-4.5321,-4.5317,-4.5321,-4.5217,-4.5199,-4.5324,-4.5324,-4.5324,-4.5324,-4.5324,-4.5324,-4.4825,-4.4895,-4.4902,-4.4985,-4.5006,-4.5063,-4.5086,-4.5117,-4.5143,-4.5213,-4.5255,-4.5269,-4.5297,-4.5349,-4.5394,-4.5399,-4.5417,-4.5438,-4.544,-4.5342,-4.5328,-4.5316,-4.5298,-4.5442,-4.5442,-4.5539,-4.554,-4.5541]},{"header":{"parameterUnit":"m.s-1","parameterCategory":1,"la1":30.2991,"la2":30.254,"lo1":-89.0895,"lo2":-89.0444,"dx":0.0017,"dy":0.0017,"nx":28,"ny":28,"refTime":"2022-11-03T15:00:00:Z","depth":0,"parameterNumber":3,"parameterNumberName":"V-component_of_WINDS"},"data":[0,0,0,0,0,0,0,0,0,0,0,0,0,0,0,0,0,0,0,0,0,0,0,0,0,0,0,0,0,0,0,0,0,0,0,0,0,0,0,0,0,0,0,0,0,0,0,0,0,0,0,0,0,0,0,0,0,0,1.6127,1.6127,0,1.6168,1.6168,1.6169,1.6174,1.6174,1.6173,1.6173,1.6215,1.6216,1.6218,0,0,0,0,0,0,0,0,0,0,0,0,0,1.6055,1.6056,1.6126,1.6127,1.6128,1.6168,1.6168,1.6169,1.6174,1.6173,1.6173,1.6173,1.6214,1.6216,1.6218,0,0,0,0,0,0,0,0,0,0,0,0,0,1.609,1.6057,1.6126,1.6135,1.6136,1.6168,1.6168,1.6169,1.6174,1.6173,1.6173,1.6172,1.6214,1.6216,1.6218,1.6244,0,0,1.6225,1.6226,0,0,0,0,0,0,0,0,1.6088,1.6093,1.6133,1.6134,1.6136,1.6165,1.6158,1.6194,1.6174,1.616,1.6173,1.6172,1.6199,1.6202,1.6211,1.6246,1.6248,1.6225,1.6226,1.6227,1.6228,0,0,0,0,0,0,0,1.6086,1.6091,1.6143,1.6134,1.6135,1.6138,1.6142,1.6165,1.6182,1.6161,1.6161,1.6166,1.6199,1.6209,1.6212,1.6248,1.6225,1.6227,1.6228,1.6229,1.631,1.6311,0,0,0,0,0,0,1.6081,1.6089,1.6141,1.6144,1.611,1.6139,1.6144,1.6156,1.6182,1.6185,1.6167,1.6166,1.6205,1.621,1.6214,1.6248,1.6227,1.6229,1.6231,1.631,1.6311,1.6311,0,0,0,0,0,0,1.608,1.6086,1.614,1.6117,1.6124,1.6141,1.6155,1.6157,1.6167,1.6186,1.6189,1.6173,1.6205,1.6211,1.6237,1.6249,1.6231,1.6233,1.6309,1.631,1.6311,1.6315,0,0,0,0,0,0,1.6078,1.6085,1.6094,1.6117,1.6125,1.6162,1.6155,1.6159,1.6171,1.6171,1.6193,1.6196,1.6205,1.6234,1.6239,1.6252,1.6234,1.6308,1.6309,1.6311,1.6314,1.6316,1.6318,0,0,0,0,0,1.6075,1.6093,1.6095,1.6101,1.6136,1.6162,1.6167,1.6177,1.6172,1.6182,1.6195,1.6196,1.6247,1.6237,1.6243,1.6256,1.6307,1.6309,1.631,1.6313,1.6315,1.6318,0,0,0,0,0,0,1.607,1.6096,1.6098,1.6123,1.6141,1.6163,1.6175,1.6179,1.6198,1.6197,1.6208,1.6213,1.624,1.6251,1.6239,1.6285,1.6277,1.628,1.6276,1.6279,1.6281,1.6278,1.6236,0,0,0,0,0,1.6072,1.609,1.6112,1.6133,1.6141,1.6157,1.6169,1.6175,1.6194,1.6201,1.6215,1.6234,1.6254,1.6267,1.6287,1.6316,1.6322,1.6329,1.6331,1.6332,1.6335,1.6354,1.6358,1.6317,1.6317,1.6317,0,0,1.6076,1.6092,1.6103,1.6132,1.6146,1.6166,1.6163,1.6183,1.6199,1.6204,1.623,1.6242,1.6264,1.6292,1.6305,1.6302,1.6348,1.6335,1.6336,1.6337,1.6356,1.636,1.6363,1.6319,1.6318,1.6318,0,0,1.6093,1.6107,1.6127,1.6142,1.6164,1.6175,1.618,1.6203,1.6212,1.6239,1.6244,1.6263,1.6298,1.6314,1.6326,1.6355,1.6357,1.6361,1.6372,1.639,1.6394,1.6397,1.6408,1.6412,1.6364,1.6364,1.6364,0,1.6095,1.6125,1.6136,1.6158,1.6172,1.6179,1.62,1.6214,1.6242,1.6252,1.6248,1.6294,1.6309,1.6343,1.635,1.6359,1.6367,1.6358,1.6392,1.6395,1.6398,1.641,1.6414,1.6364,1.6364,1.6364,1.6364,0,1.6127,1.6148,1.6162,1.619,1.6205,1.6226,1.6242,1.6257,1.6264,1.6276,1.6305,1.6324,1.6349,1.6358,1.6363,1.6394,1.6391,1.639,1.6382,1.6402,1.6413,1.6418,1.6365,1.6365,1.6364,1.6364,0,0,1.6139,1.6176,1.6181,1.6195,1.6222,1.6239,1.6263,1.6288,1.6301,1.6321,1.6342,1.6373,1.6374,1.6388,1.6396,1.6412,1.6437,1.6409,1.641,1.6415,1.6474,1.6475,1.648,1.6439,1.644,1.6441,1.6473,0,1.616,1.6201,1.6214,1.6249,1.627,1.6279,1.63,1.632,1.6333,1.6354,1.6368,1.6391,1.6388,1.6398,1.6414,1.643,1.6449,1.6428,1.646,1.6461,1.6454,1.6485,1.6486,1.6514,1.6477,1.6478,1.6478,0,1.6189,1.6211,1.6248,1.6276,1.6286,1.6304,1.633,1.635,1.6374,1.6382,1.6401,1.6409,1.6435,1.6427,1.6465,1.6451,1.6465,1.6476,1.6477,1.648,1.647,1.649,1.6524,1.6528,1.6485,1.6484,1.6484,0,1.6196,1.6235,1.6263,1.6275,1.6308,1.6321,1.6335,1.6359,1.6375,1.6398,1.6409,1.6436,1.645,1.6471,1.6487,1.6479,1.6524,1.6517,1.6533,1.6533,1.6541,1.654,1.6579,1.655,1.655,1.655,1.655,0,1.6218,1.624,1.6267,1.6284,1.6311,1.6327,1.6353,1.6368,1.639,1.6412,1.6422,1.6442,1.6462,1.6485,1.6498,1.6529,1.6535,1.6544,1.6547,1.6543,1.6542,1.6552,1.655,1.6551,1.6551,1.6551,1.6551,0,1.6229,1.6247,1.6279,1.6309,1.6317,1.6336,1.6362,1.638,1.6395,1.6423,1.643,1.6454,1.6483,1.6501,1.6537,1.6546,1.658,1.6582,1.6572,1.6573,1.6589,1.6588,1.6635,1.6643,1.6609,1.6609,1.6609,0,1.6241,1.6259,1.6292,1.6308,1.6323,1.6347,1.6364,1.6383,1.64,1.6432,1.6447,1.6476,1.65,1.6546,1.6567,1.6596,1.6599,1.6614,1.6603,1.66,1.6601,1.66,1.6602,1.6615,1.6616,1.6616,1.6616,0,1.6262,1.6272,1.6296,1.6324,1.6345,1.6368,1.6391,1.6403,1.6426,1.6446,1.6476,1.6495,1.6534,1.6564,1.6595,1.6611,1.6618,1.662,1.6625,1.6621,1.6615,1.662,1.6577,1.6618,1.6618,1.6618,1.6617,1.6617,1.6275,1.6293,1.632,1.6347,1.6367,1.639,1.6409,1.6428,1.6453,1.6486,1.6496,1.6528,1.6556,1.6599,1.6616,1.6643,1.6641,1.6648,1.665,1.6652,1.6653,1.6611,1.6648,1.6648,1.6648,1.6648,1.6648,0,1.6297,1.6316,1.6342,1.6375,1.6398,1.6404,1.6431,1.6449,1.6477,1.6503,1.6528,1.6564,1.6594,1.6619,1.6651,1.6667,1.6672,1.6675,1.6674,1.6678,1.6652,1.6644,1.6672,1.6672,1.6671,1.6671,1.6671,1.6671,1.6311,1.6342,1.6356,1.6398,1.6417,1.6449,1.6464,1.6486,1.6507,1.6547,1.6572,1.6589,1.6615,1.665,1.6679,1.6686,1.6697,1.67,1.6708,1.6682,1.668,1.6677,1.667,1.6702,1.6703,1.6732,1.6733,1.6733]}]]